Location: Lower Kingswood
(51.2667°N, 0.2167°W)
Time: 19:40:10
(UTC+00:00)

SL-24 DEB - Pass Details

Date: 26 September 2023
Orbit: 654 x 687 km, 92.0° (Epoch: 08 December)

Event Time Altitude Azimuth Distance (km) Brightness Sun altitude
Exits shadow 02:12:59 21° 102° (ESE) 1,544 6.3 -31.8°
Drops below altitude 10° 02:18:26 10° 17° (NNE) 2,149 7.5 -31.2°
Enters shadow 03:27:50 -42° 178° (S) 9,446 10.0 -22.6°
Maximum altitude 03:52:12 47° 271° (W) 904 4.5 -19.2°
